Location: Central Falls
(41.8900°N, 71.3929°W)
Time: 06:52:54
(UTC+00:00)

Altair - Pass Details

Date: 07 December 2023
Orbit: 1501 x 1682 km, 47.2° (Epoch: 29 February)

Event Time Altitude Azimuth Distance (km) Brightness Sun altitude
Rises 20:29:40 0° 290° (WNW) 4,666 10.5 6.1°
Reaches altitude 10° 20:33:51 10° 274° (W) 3,664 10.4 5.4°
Maximum altitude 20:39:40 19° 234° (SW) 3,001 11.1 4.6°
Drops below altitude 10° 20:45:30 10° 194° (SSW) 3,644 10.3 3.7°
Sets 20:49:41 0° 177° (S) 4,633 10.5 3.0°
